Location: ??
(35.5138°N, 139.6953°E)
Time: 08:49:59
(UTC+00:00)

Cosmos 1900 - Pass Details

Date: 07 June 2020
Orbit: 684 x 738 km, 66.1° (Epoch: 05 July)

Event Time Altitude Azimuth Distance (km) Brightness Sun altitude
Rises 11:14:00 0° 335° (NNW) 3,135 9.0 -14.0°
Reaches altitude 10° 11:16:22 10° 338° (NNW) 2,218 7.9 -14.3°
Maximum altitude 11:21:25 66° 61° (ENE) 799 4.5 -15.1°
Enters shadow 11:24:20 25° 137° (SE) 1,448 5.3 -15.5°
